KB1JDX Weather Reports


time (UTC)temp
F
wind
direction
speed
knots
gust
knots
rain 1hr
in
rain 24hr
in
rain mn
in
humidity
%
barometer
mb
20260502122032 49 186 0.0 0.0 0.00 0.00 0.00 49 1012.1
20260502121925 49 186 0.0 0.0 0.00 0.00 0.00 49 1012.1
20260502120110 49 186 0.0 0.0 0.00 0.00 0.00 51 1012.6
20260502112031 49 185 0.0 0.0 0.00 0.00 0.00 48 1011.9
20260502111925 49 185 0.0 0.0 0.00 0.00 0.00 47 1011.9
20260502110031 48 184 0.0 0.0 0.00 0.00 0.00 50 1011.8
20260502104031 48 184 0.0 0.0 0.00 0.00 0.00 52 1011.6
20260502102031 48 184 0.0 0.0 0.00 0.00 0.00 52 1011.5
20260502101925 48 184 0.0 0.0 0.00 0.00 0.00 52 1011.6
20260502070031 49 184 0.0 0.0 0.00 0.00 0.00 65 1011.3
20260502064031 49 184 0.0 0.0 0.00 0.00 0.00 65 1011.3
20260502062031 49 184 0.0 0.0 0.00 0.00 0.00 66 1011.5
20260502061925 49 184 0.0 0.0 0.00 0.00 0.00 66 1011.5
20260502060031 50 184 0.0 0.0 0.00 0.00 0.00 66 1011.5
20260502054031 50 191 0.0 0.0 0.00 0.00 0.00 67 1011.8
20260502052031 50 176 0.0 0.0 0.00 0.00 0.00 67 1011.7
20260502051925 50 175 0.0 0.0 0.00 0.00 0.00 67 1011.7
20260502050031 50 190 0.0 0.0 0.00 0.00 0.00 67 1011.9
20260502044031 50 186 0.0 0.0 0.00 0.00 0.00 67 1011.8
20260502042031 50 186 0.0 0.0 0.00 0.00 0.00 67 1011.8
20260502041925 50 186 0.0 0.0 0.00 0.00 0.00 67 1011.8
20260502040031 50 186 0.0 0.0 0.00 0.00 0.00 67 1011.9
20260502034031 51 186 0.0 0.0 0.00 0.00 0.00 67 1011.9
20260502032031 51 184 0.0 0.0 0.00 0.00 0.00 66 1012.0
20260502031925 51 184 0.0 0.0 0.00 0.00 0.00 66 1012.0
20260502030032 51 182 0.0 0.0 0.00 0.00 0.00 65 1012.0
20260502024031 52 182 0.0 0.0 0.00 0.00 0.00 63 1011.6
20260502022031 52 218 0.0 0.0 0.00 0.00 0.00 61 1011.7
20260502021925 52 219 0.0 0.0 0.00 0.00 0.00 61 1011.8
20260502020031 52 246 0.0 0.0 0.00 0.00 0.00 60 1011.8
20260502014031 52 248 0.0 0.0 0.00 0.00 0.00 58 1011.6
20260502012031 52 255 0.0 0.0 0.00 0.00 0.00 59 1011.4
20260502011925 51 257 0.0 0.0 0.00 0.00 0.00 59 1011.4
20260502010030 52 257 0.0 0.0 0.00 0.00 0.00 58 1011.2
20260502002031 55 257 0.0 0.0 0.00 0.00 0.00 51 1010.3
20260502001925 55 257 0.0 0.0 0.00 0.00 0.00 51 1010.3
20260502000031 57 257 0.0 0.0 0.00 0.00 0.00 48 1010.0
20260501234031 59 257 0.0 0.0 0.00 0.00 0.00 46 1010.0
20260501232032 60 257 0.0 0.0 0.00 0.00 0.00 41 1009.6
20260501231925 60 257 0.0 0.0 0.00 0.00 0.00 41 1009.6
20260501230031 61 257 0.0 7.8 0.00 0.00 0.00 37 1009.4
20260501224031 61 292 0.0 7.8 0.00 0.00 0.00 37 1009.2
20260501222033 62 286 0.0 7.8 0.00 0.00 0.00 36 1009.2
20260501221925 62 286 0.0 7.8 0.00 0.00 0.00 35 1009.1
20260501214034 62 301 0.0 6.1 0.00 0.00 0.00 35 1008.9
20260501212032 63 57 5.2 6.1 0.00 0.00 0.00 35 1009.0
20260501211925 63 300 0.9 6.1 0.00 0.00 0.00 34 1009.0
20260501210032 64 288 0.0 7.8 0.00 0.00 0.00 35 1008.7
20260501204032 65 254 0.0 7.8 0.00 0.00 0.00 33 1008.7
20260501201925 64 269 0.0 7.8 0.00 0.00 0.00 34 1008.5
20260501194032 65 260 0.0 7.8 0.00 0.00 0.00 34 1009.0
20260501192033 65 238 0.0 7.8 0.00 0.00 0.00 37 1009.2
20260501191926 64 237 0.0 7.8 0.00 0.00 0.00 37 1009.2
20260501190032 64 314 0.0 7.8 0.00 0.00 0.00 37 1009.2
20260501184032 64 278 7.0 7.8 0.00 0.00 0.00 35 1009.5
20260501182032 64 213 11.3 7.8 0.00 0.00 0.00 39 1009.4
20260501181925 64 286 0.9 7.8 0.00 0.00 0.00 39 1009.4
20260501180033 63 281 0.9 12.2 0.00 0.00 0.00 39 1009.5
20260501174032 62 302 0.0 12.2 0.00 0.00 0.00 44 1009.6
20260501172030 61 299 0.9 12.2 0.00 0.00 0.00 44 1009.9
20260501171925 61 309 7.8 12.2 0.00 0.00 0.00 45 1009.7
20260501170032 60 213 3.5 10.4 0.00 0.00 0.00 45 1009.9
20260501164031 60 261 0.0 10.4 0.00 0.00 0.00 49 1010.2
20260501162032 58 277 0.0 10.4 0.00 0.00 0.00 51 1010.2
20260501161925 58 277 0.0 10.4 0.00 0.00 0.00 51 1010.2
20260501160030 57 26 0.0 7.0 0.00 0.01 0.00 53 1010.5
20260501154030 57 284 0.0 7.0 0.00 0.01 0.00 54 1010.6
20260501152032 55 301 0.0 7.0 0.00 0.06 0.00 58 1010.8
20260501151925 55 301 0.0 7.0 0.00 0.06 0.00 59 1010.8
20260501150032 54 29 0.0 6.1 0.00 0.08 0.00 60 1010.8
20260501144031 52 305 3.5 6.1 0.00 0.08 0.00 65 1011.0
20260501142030 51 307 0.0 6.1 0.00 0.10 0.00 67 1011.1
20260501141925 51 307 0.0 6.1 0.00 0.10 0.00 67 1011.2